Weather in Luh

Russia / Ivanovo Oblast     57°00′27″N   42°15′07″E
temp.,
°C
wind,
m/s
gust,
m/s
humid.,
%
clouds,
%
prec.,
mm/h
press.,
hPa
HPBL,
m
26 february, fri
fri2600:00−13ese2396100 0.1 101337
03:00−13ese3596100 0.1 1013105
06:00−13se4795100 0.1 1011188
09:00−12se5995100 1.1 1007249
12:00−9sse51095100 3.9 1003299
15:00−5se5996100 8.1 999231
18:00+2w513100100 4.6 995465
21:00+1w61399100 5.2 995597
27 february, sat
sat2700:00+1w61298100 0.8 993553
03:000w71297100 1.2 996608
06:00−11nnw5994100 0.6 998470
09:00−12n61090100 0.9 1002606
12:00−12n6988100 0.1 1005657
15:00−11n5888100 0.1 1007719
18:00−12n3893100 0.1 1009286
21:00−15n349698 0.1 101259
28 february, sun
sun2800:00−18n34969 0.0 101348
03:00−19n33969 0.0 101546
06:00−20nnw239633 0.0 101531
09:00−17n249456 0.0 1016181
12:00−12n238577 0.0 1016405
15:00−9nnw348789 0.1 1017522
18:00−13nnw1295100 0.1 101721
21:00−14n1296100 0.1 102020
1 march, mon
mon100:00−15n129660 0.0 102120
03:00−16nw129744 0.0 102320
06:00−15wnw119793 0.0 102320
09:00−12wsw229562 0.0 102481
12:00−6sw349056 0.0 1023345
15:00−4wsw589078 0.1 1021735
18:00−5sw51193100 0.1 1017476
21:00−2wsw61296100 0.6 1014549
2 march, tue
tue200:000wnw61298100 0.4 1011669
03:00+1wnw61298100 0.8 1010621
06:00+1nw51097100 0.3 1009541
09:000nw6129393 0.6 1008700
12:00+1nw6129186 0.3 1008950
15:00+1nw6119090 0.4 1008951
18:00−1nw61291100 0.1 1008706
21:00−2nw5139192 0.1 1009527